Time,TemperatureF,DewpointF,PressureIn,WindDirection,WindDirectionDegrees,WindSpeedMPH,WindSpeedGustMPH,Humidity,HourlyPrecipIn,Conditions,Clouds,dailyrainin,SoftwareType,DateUTC
2013-07-22 00:01:00,73.0,73.0,29.92,ESE,112,2.0,6.0,100,0.00,,,0.00,,2013-07-22 04:01:00,
2013-07-22 00:12:00,73.0,73.0,29.92,SE,135,2.0,6.0,100,0.00,,,0.00,,2013-07-22 04:12:00,
2013-07-22 00:22:00,73.0,73.0,29.91,East,90,3.0,6.0,100,0.00,,,0.00,,2013-07-22 04:22:00,
2013-07-22 00:33:00,73.0,73.0,29.92,ESE,112,2.0,7.0,100,0.00,,,0.00,,2013-07-22 04:33:00,
2013-07-22 00:43:00,72.0,72.0,29.90,ESE,112,2.0,5.0,100,0.00,,,0.00,,2013-07-22 04:43:00,
2013-07-22 01:02:00,72.0,72.0,29.90,ESE,112,3.0,5.0,100,0.00,,,0.00,,2013-07-22 05:02:00,
2013-07-22 01:11:00,72.0,72.0,29.91,East,90,3.0,4.0,100,0.00,,,0.00,,2013-07-22 05:11:00,
2013-07-22 01:22:00,72.0,72.0,29.90,East,90,3.0,7.0,100,0.00,,,0.00,,2013-07-22 05:22:00,
2013-07-22 01:32:00,72.0,72.0,29.89,SSE,157,2.0,5.0,100,0.00,,,0.00,,2013-07-22 05:32:00,
2013-07-22 01:43:00,72.0,72.0,29.90,East,90,3.0,5.0,100,0.00,,,0.00,,2013-07-22 05:43:00,
2013-07-22 01:52:00,71.0,71.0,29.89,East,90,2.0,4.0,100,0.00,,,0.00,,2013-07-22 05:52:00,
2013-07-22 02:01:00,71.0,71.0,29.91,East,90,3.0,5.0,100,0.00,,,0.00,,2013-07-22 06:01:00,
2013-07-22 02:11:00,71.0,71.0,29.91,East,90,1.0,5.0,100,0.00,,,0.00,,2013-07-22 06:11:00,
2013-07-22 02:22:00,71.0,71.0,29.90,SE,135,3.0,5.0,100,0.00,,,0.00,,2013-07-22 06:22:00,
2013-07-22 02:33:00,71.0,71.0,29.89,ENE,67,2.0,6.0,100,0.00,,,0.00,,2013-07-22 06:33:00,
2013-07-22 02:43:00,71.0,71.0,29.89,ENE,67,1.0,4.0,100,0.00,,,0.00,,2013-07-22 06:43:00,
2013-07-22 02:52:00,71.0,71.0,29.89,ENE,67,1.0,5.0,100,0.00,,,0.00,,2013-07-22 06:52:00,
2013-07-22 03:01:00,71.0,71.0,29.90,ENE,67,0.0,0.0,100,0.00,,,0.00,,2013-07-22 07:01:00,
2013-07-22 03:12:00,70.0,70.0,29.90,ESE,112,0.0,0.0,99,0.00,,,0.00,,2013-07-22 07:12:00,
2013-07-22 03:22:00,70.0,70.0,29.89,NNE,22,0.0,0.0,99,0.00,,,0.00,,2013-07-22 07:22:00,
2013-07-22 03:33:00,70.0,70.0,29.91,SW,225,1.0,3.0,100,0.00,,,0.00,,2013-07-22 07:33:00,
2013-07-22 03:43:00,69.0,69.0,29.91,North,360,2.0,5.0,100,0.00,,,0.00,,2013-07-22 07:43:00,
2013-07-22 03:52:00,69.0,68.0,29.91,NNW,337,2.0,12.0,98,0.00,,,0.00,,2013-07-22 07:52:00,
2013-07-22 04:02:00,68.0,68.0,29.90,NNE,22,3.0,7.0,99,0.00,,,0.00,,2013-07-22 08:02:00,
2013-07-22 04:11:00,68.0,68.0,29.90,NE,45,1.0,5.0,99,0.00,,,0.00,,2013-07-22 08:11:00,
2013-07-22 04:22:00,68.0,68.0,29.90,West,270,2.0,10.0,100,0.00,,,0.00,,2013-07-22 08:22:00,
2013-07-22 04:32:00,67.0,67.0,29.90,NW,315,1.0,5.0,100,0.00,,,0.00,,2013-07-22 08:32:00,
2013-07-22 04:43:00,66.0,66.0,29.90,ESE,112,4.0,8.0,100,0.00,,,0.00,,2013-07-22 08:43:00,
2013-07-22 04:52:00,66.0,66.0,29.91,NNE,22,3.0,6.0,100,0.00,,,0.00,,2013-07-22 08:52:00,
2013-07-22 05:02:00,66.0,66.0,29.90,NE,45,4.0,8.0,100,0.00,,,0.00,,2013-07-22 09:02:00,
2013-07-22 05:11:00,66.0,66.0,29.91,NE,45,2.0,6.0,100,0.00,,,0.00,,2013-07-22 09:11:00,
2013-07-22 05:22:00,65.0,65.0,29.90,East,90,3.0,10.0,100,0.00,,,0.00,,2013-07-22 09:22:00,
2013-07-22 05:33:00,65.0,65.0,29.91,SE,135,2.0,4.0,100,0.00,,,0.00,,2013-07-22 09:33:00,
2013-07-22 05:42:00,64.0,64.0,29.90,NE,45,2.0,8.0,100,0.00,,,0.01,,2013-07-22 09:42:00,
2013-07-22 05:52:00,64.0,64.0,29.90,NE,45,2.0,9.0,100,0.00,,,0.01,,2013-07-22 09:52:00,
2013-07-22 06:02:00,64.0,64.0,29.91,ENE,67,2.0,4.0,100,0.00,,,0.02,,2013-07-22 10:02:00,
2013-07-22 06:11:00,64.0,64.0,29.91,East,90,2.0,6.0,100,0.00,,,0.02,,2013-07-22 10:11:00,
2013-07-22 06:22:00,64.0,64.0,29.91,ESE,112,1.0,6.0,100,0.00,,,0.03,,2013-07-22 10:22:00,
2013-07-22 06:32:00,64.0,64.0,29.93,East,90,0.0,0.0,100,0.00,,,0.05,,2013-07-22 10:32:00,
2013-07-22 06:43:00,64.0,64.0,29.91,East,90,2.0,5.0,100,0.00,,,0.06,,2013-07-22 10:43:00,
2013-07-22 06:52:00,64.0,64.0,29.91,East,90,1.0,4.0,100,0.00,,,0.08,,2013-07-22 10:52:00,
2013-07-22 07:02:00,64.0,64.0,29.91,East,90,0.0,4.0,100,0.00,,,0.10,,2013-07-22 11:02:00,
2013-07-22 07:11:00,64.0,64.0,29.90,ENE,67,0.0,0.0,100,0.00,,,0.12,,2013-07-22 11:11:00,
2013-07-22 07:23:00,64.0,64.0,29.91,NE,45,0.0,0.0,100,0.00,,,0.12,,2013-07-22 11:23:00,
2013-07-22 07:32:00,64.0,64.0,29.91,ENE,67,0.0,0.0,100,0.00,,,0.13,,2013-07-22 11:32:00,
2013-07-22 07:43:00,64.0,64.0,29.92,NE,45,0.0,0.0,100,0.00,,,0.13,,2013-07-22 11:43:00,
2013-07-22 07:52:00,64.0,64.0,29.91,East,90,0.0,0.0,100,0.00,,,0.13,,2013-07-22 11:52:00,
2013-07-22 08:02:00,64.0,64.0,29.92,NE,45,0.0,0.0,100,0.00,,,0.13,,2013-07-22 12:02:00,
2013-07-22 08:11:00,64.0,64.0,29.92,NE,45,0.0,0.0,100,0.00,,,0.13,,2013-07-22 12:11:00,
2013-07-22 08:22:00,64.0,64.0,29.91,NNE,22,0.0,0.0,100,0.00,,,0.13,,2013-07-22 12:22:00,
2013-07-22 08:33:00,64.0,64.0,29.90,ENE,67,0.0,0.0,100,0.00,,,0.13,,2013-07-22 12:33:00,
2013-07-22 08:43:00,64.0,64.0,29.91,ENE,67,0.0,0.0,100,0.00,,,0.13,,2013-07-22 12:43:00,
2013-07-22 08:53:00,65.0,65.0,29.89,East,90,0.0,0.0,100,0.00,,,0.14,,2013-07-22 12:53:00,
2013-07-22 09:01:00,65.0,65.0,29.89,ENE,67,0.0,0.0,100,0.00,,,0.14,,2013-07-22 13:01:00,
2013-07-22 09:11:00,65.0,65.0,29.89,ENE,67,0.0,0.0,100,0.00,,,0.14,,2013-07-22 13:11:00,
2013-07-22 09:43:00,66.0,66.0,29.89,ENE,67,0.0,0.0,100,0.00,,,0.16,,2013-07-22 13:43:00,
2013-07-22 09:53:00,66.0,66.0,29.87,East,90,1.0,2.0,100,0.00,,,0.16,,2013-07-22 13:53:00,
2013-07-22 10:32:00,66.0,66.0,29.87,ENE,67,0.0,0.0,100,0.00,,,0.16,,2013-07-22 14:32:00,
2013-07-22 10:53:00,67.0,67.0,29.87,East,90,0.0,0.0,100,0.00,,,0.16,,2013-07-22 14:53:00,
2013-07-22 11:52:00,70.0,70.0,29.87,ENE,67,3.0,0.0,100,0.00,,,0.16,,2013-07-22 15:52:00,
2013-07-22 12:43:00,71.0,71.0,29.87,East,90,1.0,0.0,100,0.00,,,0.16,,2013-07-22 16:43:00,
2013-07-22 13:43:00,75.0,75.0,29.81,East,90,4.0,9.0,100,0.00,,,0.16,,2013-07-22 17:43:00,
2013-07-22 13:52:00,75.0,75.0,29.81,NE,45,3.0,5.0,100,0.00,,,0.16,,2013-07-22 17:52:00,
2013-07-22 17:43:00,80.0,71.0,29.74,ENE,67,1.0,0.0,75,0.00,,,0.16,,2013-07-22 21:43:00,
2013-07-22 17:52:00,81.0,72.0,29.74,ESE,112,0.0,7.0,74,0.00,,,0.16,,2013-07-22 21:52:00,
2013-07-22 18:43:00,80.0,71.0,29.72,SE,135,0.0,5.0,74,0.00,,,0.16,,2013-07-22 22:43:00,
2013-07-22 19:01:00,80.0,69.0,29.71,ESE,112,2.0,2.0,70,0.00,,,0.16,,2013-07-22 23:01:00,
2013-07-22 19:32:00,80.0,70.0,29.72,SE,135,0.0,0.0,72,0.00,,,0.16,,2013-07-22 23:32:00,
2013-07-22 19:42:00,79.0,70.0,29.72,SE,135,2.0,4.0,74,0.00,,,0.16,,2013-07-22 23:42:00,
2013-07-22 19:52:00,79.0,71.0,29.72,East,90,0.0,3.0,76,0.00,,,0.16,,2013-07-22 23:52:00,
2013-07-22 20:01:00,78.0,71.0,29.72,ESE,112,1.0,0.0,79,0.00,,,0.16,,2013-07-23 00:01:00,
2013-07-22 20:12:00,77.0,71.0,29.74,ESE,112,2.0,4.0,81,0.00,,,0.16,,2013-07-23 00:12:00,
2013-07-22 20:43:00,75.0,71.0,29.75,East,90,1.0,4.0,87,0.00,,,0.16,,2013-07-23 00:43:00,
2013-07-22 20:52:00,75.0,71.0,29.75,East,90,0.0,0.0,87,0.00,,,0.16,,2013-07-23 00:52:00,
2013-07-22 21:01:00,74.0,70.0,29.77,East,90,0.0,0.0,87,0.00,,,0.16,,2013-07-23 01:01:00,
2013-07-22 21:22:00,74.0,71.0,29.76,East,90,0.0,0.0,91,0.00,,,0.16,,2013-07-23 01:22:00,
2013-07-22 21:43:00,72.0,70.0,29.78,East,90,0.0,0.0,94,0.00,,,0.16,,2013-07-23 01:43:00,
2013-07-22 23:22:00,68.0,68.0,29.80,East,90,0.0,0.0,100,0.00,,,0.16,,2013-07-23 03:22:00,
2013-07-22 23:43:00,68.0,68.0,29.82,East,90,0.0,0.0,100,0.00,,,0.16,,2013-07-23 03:43:00,